Torna al catalogo

STARLINK-34645

AttivoComunicazioniVLEO
NORAD 64766·PAYLOAD·🇺🇸 United States

Lanciato Jul 8, 2025 da Cape Canaveral Space Force Station

Loading…

Prossimi Passaggi (prossime 24 ore)

TLE

AggiornatoSource: CelesTrak SupGP

Epoca: Sep 14, 2026, 22:48 UTC

1 64766C 25147M   26257.95048611  .00040260  00000+0  11898-2 0  2571
2 64766  53.1593  83.3226 0001293  86.8684 255.6546 15.34362165    16

Traccia STARLINK-34645 in tempo reale con AllMySat

Download on the App Store